Location: Sankt Anna
(58.3452°N, 16.7040°E)
Time: 01:44:21
(UTC+02:00)

DX 1 - Pass Details

Date: 28 May 2019
Orbit: 620 x 630 km, 98.4° (Epoch: 20 June)

Event Time Altitude Azimuth Distance (km) Brightness Sun altitude
Rises 02:19:56 0° 125° (SE) 2,913 ? -8.1°
Reaches altitude 10° 02:22:21 10° 113° (ESE) 2,011 ? -8.0°
Maximum altitude 02:26:02 27° 56° (NE) 1,215 ? -7.8°
Drops below altitude 10° 02:29:44 10° 359° (N) 2,026 ? -7.6°
Sets 02:32:11 0° 347° (NNW) 2,939 ? -7.5°
